CAPE
0 0 0 1 0 0 2 3 0 0 0 0 0 0 0 0 0 0 0 0 0 0
0 0 4 2 0 6 2 0 0 0 0 0 0 0 0 0 0 0 0 0 0 0
4 5 3 2 5 3 1 0 0 0 0 0 0 0 0 0 0 0 0 0 0 0
4 4 4 3 2 1 1 1 1 0 0 0 0 0 0 0 0 0 0 0 0 0
4 4 3 1 1 1 1 0 0 0 0 0 0 0 0 0 0 0 0 0 0 0
2 2 2 1 0 1 0 0 0 0 0 0 0 0 0 0 0 0 0 0 0 0
3 1 2 1 0 0 0 0 0 0 0 0 0 0 0 0 0 0 0 0 0 0
2 1 1 0 0 0 0 0 0 0 0 0 0 0 0 0 0 0 0 0 0 0
1 0 1 0 0 0 0 0 0 0 0 0 0 0 0 0 0 0 0 0 0 0
2 1 0 0 0 0 0 0 0 0 0 0 0 0 0 0 0 0 0 0 0 0
0 0 0 0 0 0 0 0 0 0 0 0 0 0 0 0 0 0 0 0 0 0
0 0 0 0 0 0 0 0 0 0 0 0 0 0 0 0 0 0 0 0 0 0
0 0 0 0 0 0 0 0 0 0 0 0 0 0 0 0 0 0 0 0 0 0
0 0 0 0 0 0 0 0 0 0 0 0 0 0 0 0 0 0 0 0 0 0
CIN
-0 -0 -0 -0 -0 -0 -0 -0 -0 -0 -0 -0 -0 -0 -0 -0 -0 -0 -0 -0 -0 -0
-0 -0 -0 -0 -0 -0 -0 -0 -0 -0 -0 -0 -0 -0 -0 -0 -0 -0 -0 -0 -0 -0
-0 -0 -0 -0 -0 -0 -0 -0 -0 -0 -0 -0 -0 -0 -0 -0 -0 -0 -0 -0 -0 -0
-0 -0 -0 -0 -0 -0 -0 -0 -0 -0 -0 -0 -0 -0 -0 -0 -0 -0 -0 -0 -0 -0
-0 -0 -0 -0 -0 -0 -0 -0 -0 -0 -0 -0 -0 -0 -0 -0 -0 -0 -0 -0 -0 -0
-0 -0 -0 -0 -0 -0 -0 -0 -0 -0 -0 -0 -0 -0 -0 -0 -0 -0 -0 -0 -0 -0
-0 -0 -0 -0 -0 -0 -0 -0 -0 -0 -0 -0 -0 -0 -0 -0 -0 -0 -0 -0 -0 -0
-0 -0 -0 -0 -0 -0 -0 -0 -0 -0 -0 -0 -0 -0 -0 -0 -0 -0 -0 -0 -0 -0
-0 -0 -0 -0 -0 -0 -0 -0 -0 -0 -0 -0 -0 -0 -0 -0 -0 -0 -0 -0 -0 -0
-0 -0 -0 -0 -0 -0 -0 -0 -0 -0 -0 -0 -0 -0 -0 -0 -0 -0 -0 -0 -0 -0
-0 -0 -0 -0 -0 -0 -0 -0 -0 -0 -0 -0 -0 -0 -0 -0 -0 -0 -0 -0 -0 -0
-0 -0 -0 -0 -0 -0 -0 -0 -0 -0 -0 -0 -0 -0 -0 -0 -0 -0 -0 -0 -0 -0
-0 -0 -0 -0 -0 -0 -0 -0 -0 -0 -0 -0 -0 -0 -0 -0 -0 -0 -0 -0 -0 -0
-0 -0 -0 -0 -0 -0 -0 -0 -0 -0 -0 -0 -0 -0 -0 -0 -0 -0 -0 -0 -0 -0
Wind_Speed
15 15 13 12 11 10 9 8 8 6 7 8 11 15 13 12 13 13 15 17 19 20
15 14 13 11 9 7 5 4 4 4 6 10 10 10 10 11 12 14 17 18 20 21
14 14 11 8 7 5 4 2 3 5 8 9 9 9 10 12 14 16 18 19 20 22
12 10 7 5 4 4 1 2 4 7 6 7 8 10 11 14 15 17 19 20 21 23
9 8 6 5 4 2 1 4 4 6 6 8 10 11 13 14 17 18 20 20 22 24
6 6 6 6 4 1 3 4 5 7 8 10 11 13 15 16 18 19 20 22 23 25
5 6 5 3 3 5 6 7 8 8 10 12 13 15 16 17 18 20 21 22 24 25
6 8 6 7 8 9 8 8 9 11 12 14 15 16 17 18 20 21 22 24 25 26
8 9 9 11 11 9 8 11 12 13 13 15 16 17 18 20 21 22 24 26 27 27
11 12 12 10 11 11 12 13 13 14 15 15 16 18 19 21 21 23 25 27 29 30
12 10 10 11 14 15 15 14 14 14 16 17 17 18 19 20 23 25 27 28 29 30
14 14 15 19 17 15 14 14 15 16 17 18 18 19 20 23 25 26 28 27 27 29
24 22 18 16 15 14 15 16 16 17 18 18 19 22 24 25 25 27 28 29 29 28
18 17 16 15 15 16 16 16 16 17 19 20 21 23 24 26 27 30 29 29 30 30
Wind_Direction
240 246 247 249 252 263 271 281 297 317 332 344 345 343 346 356 359 3 3 1 359 359
241 245 247 250 252 257 263 279 298 350 351 344 357 359 1 8 7 8 3 3 5 7
243 245 247 242 243 238 240 264 309 338 351 2 4 8 16 10 8 8 8 10 7 3
235 235 228 237 212 213 195 312 326 352 18 27 24 22 16 11 13 13 15 7 5 3
212 212 208 197 202 190 325 328 12 29 37 38 31 21 17 16 18 12 9 8 4 360
202 179 187 172 174 315 19 46 40 44 37 33 25 21 23 18 15 11 10 5 1 357
157 141 154 157 118 84 75 68 59 48 37 32 30 26 20 16 12 9 5 3 -0 357
131 113 101 98 94 88 75 62 54 50 40 34 24 19 15 11 5 4 2 0 358 355
120 96 103 96 91 82 64 60 55 47 34 25 21 17 11 7 4 2 360 356 355 354
101 101 99 92 81 72 67 63 50 38 30 24 19 15 11 7 4 1 357 356 352 349
100 97 84 74 73 75 71 56 41 31 23 19 16 12 10 6 1 358 355 353 351 350
89 83 83 87 82 69 56 42 30 24 20 16 14 12 6 1 357 355 352 353 354 352
94 92 83 75 64 50 40 32 28 23 23 21 12 6 2 360 357 353 352 353 353 353
78 76 68 59 49 40 37 37 32 25 18 12 9 5 3 359 356 354 353 353 352 353